Location: Unspecified
(54.1780°N, 0.0000°E)
Time: 16:57:22
(UTC+00:00)

Vanguard 2 - Pass Details

Date: 17 June 2019
Orbit: 553 x 2938 km, 32.9° (Epoch: 19 July)

Event Time Altitude Azimuth Distance (km) Brightness Sun altitude
Rises 10:38:28 0° 223° (SW) 4,092 11.3 55.5°
Reaches altitude 10° 10:41:43 10° 208° (SSW) 3,471 11.2 55.8°
Maximum altitude 10:48:13 22° 162° (SSE) 3,285 11.8 56.3°
Drops below altitude 10° 10:57:02 10° 121° (ESE) 4,880 12.2 57.0°
Sets 11:02:50 0° 109° (ESE) 6,276 12.5 57.3°
